Location: Althorst
(53.6379°N, 10.7715°E)
Time: 07:21:21
(UTC+00:00)

Meteor 1-10 Rocket - Pass Details

Date: 10 December 2019
Orbit: 836 x 909 km, 81.3° (Epoch: 28 January)

Event Time Altitude Azimuth Distance (km) Brightness Sun altitude
Rises 15:55:20 0° 174° (S) 3,378 7.6 -8.0°
Reaches altitude 10° 15:57:46 10° 170° (S) 2,451 6.9 -8.3°
Maximum altitude 16:03:07 52° 95° (E) 1,048 4.4 -9.1°
Drops below altitude 10° 16:08:35 10° 21° (NNE) 2,499 6.2 -9.8°
Sets 16:11:05 0° 17° (NNE) 3,451 7.0 -10.1°
